Powrót do katalogu

SMOS

AktywnyNaukaSSO
NORAD 36036·PAYLOAD·🇪🇺 EU

Wystrzelony Nov 2, 2009 z Plesetsk Cosmodrome

Loading…

Następne Przeloty (najbliższe 24 godziny)

TLE

ŚwieżeSource: Space-Track

Epoka: Sep 14, 2026, 00:08 UTC

1 36036U 09059A   26257.00599658  .00000207  00000-0  80065-4 0  9997
2 36036  98.4436  83.0504 0001348  80.4209 279.7131 14.39765034886232

Śledź SMOS w czasie rzeczywistym z AllMySat

Download on the App Store